SCP
0 0 0 0 0 0 0 0 0 0 0 0 0 0 0 0 0 0 0 0 0 0 0 0 0 0 0 0 0 0 0 0 0 0 0 0 0 0
0 0 0 0 0 0 0 0 0 0 0 0 0 0 0 0 0 0 0 0 0 0 0 0 0 0 0 0 0 0 0 0 0 0 0 0 0 0
0 0 0 0 0 0 0 0 0 0 0 0 0 0 0 0 0 0 0 0 0 0 0 0 0 0 0 0 0 0 0 0 0 0 0 0 0 0
0 0 0 0 0 0 0 0 0 0 0 0 0 0 0 0 0 0 0 0 0 0 0 0 0 0 0 0 0 0 0 0 0 0 0 0 0 0
0 0 0 0 0 0 0 0 0 0 0 0 0 0 0 0 0 0 0 0 0 0 0 0 0 0 0 0 0 0 0 0 0 0 0 0 0 0
0 0 0 0 0 0 0 0 0 0 0 0 0 0 0 0 0 0 0 0 0 0 0 0 0 0 0 0 0 0 0 0 0 0 0 0 0 0
0 0 0 0 0 0 0 0 0 0 0 0 0 0 0 0 0 0 0 0 0 0 0 0 0 0 0 0 0 0 0 0 0 0 0 0 0 0
0 0 0 0 0 0 0 0 0 0 0 0 0 0 0 0 0 0 0 0 0 0 0 0 0 0 0 0 0 0 0 0 0 0 0 0 0 0
0 0 0 0 0 0 0 0 0 0 0 0 0 0 0 0 0 0 0 0 0 0 0 0 0 0 0 0 0 0 0 0 0 0 0 0 0 0
0 0 0 0 0 0 0 0 0 0 0 0 0 0 0 0 0 0 0 0 0 0 0 0 0 0 0 0 0 0 0 0 0 0 0 0 0 0
0 0 0 0 0 0 0 0 0 0 0 0 0 0 0 0 0 0 0 0 0 0 0 0 0 0 0 0 0 0 0 0 0 0 0 0 0 0
0 0 0 0 0 0 0 0 0 0 0 0 0 0 0 0 0 0 0 0 0 0 0 0 0 0 0 0 0 0 0 0 0 0 0 0 0 0
0 0 0 0 0 0 0 0 0 0 0 0 0 0 0 0 0 0 0 0 0 0 0 0 0 0 0 0 0 0 0 0 0 0 0 0 0 0
0 0 0 0 0 0 0 0 0 0 0 0 0 0 0 0 0 0 0 0 0 0 0 0 0 0 0 0 0 0 0 0 0 0 0 0 0 0
0 0 0 0 0 0 0 0 0 0 0 0 0 0 0 0 0 0 0 0 0 0 0 0 0 0 0 0 0 0 0 0 0 0 0 0 0 0
0 0 0 0 0 0 0 0 0 0 0 0 0 0 0 0 0 0 0 0 0 0 0 0 0 0 0 0 0 0 0 0 0 0 0 0 0 0
0 0 0 0 0 0 0 0 0 0 0 0 0 0 0 0 0 0 0 0 0 0 0 0 0 0 0 0 0 0 0 0 0 0 0 0 0 0
0 0 0 0 0 0 0 0 0 0 0 0 0 0 0 0 0 0 0 0 0 0 0 0 0 0 0 0 0 0 0 0 0 0 0 0 0 0
0 0 0 0 0 0 0 0 0 0 0 0 0 0 0 0 0 0 0 0 0 0 0 0 0 0 0 0 0 0 0 0 0 0 0 0 0 0
0 0 0 0 0 0 0 0 0 0 0 0 0 0 0 0 0 0 0 0 0 0 0 0 0 0 0 0 0 0 0 0 0 0 0 0 0 0
0 0 0 0 0 0 0 0 0 0 0 0 0 0 0 0 0 0 0 0 0 0 0 0 0 0 0 0 0 0 0 0 0 0 0 0 0 0
0 0 0 0 0 0 0 0 0 0 0 0 0 0 0 0 0 0 0 0 0 0 0 0 0 0 0 0 0 0 0 0 0 0 0 0 0 0
0 0 0 0 0 0 0 0 0 0 0 0 0 0 0 0 0 0 0 0 0 0 0 0 0 0 0 0 0 0 0 0 0 0 0 0 0 0
Wind_Speed
3 3 3 2 2 2 3 3 4 4 4 2 2 2 3 4 5 6 6 8 10 10 10 9 9 9 10 10 11 12 12 12 12 13 13 13 13 14
2 3 3 2 2 2 2 3 4 5 5 3 3 4 5 5 6 7 6 9 8 9 9 8 8 9 9 10 11 11 12 11 12 12 13 13 14 14
3 4 4 3 3 2 3 3 4 4 6 5 4 5 6 6 5 6 6 6 5 7 8 8 8 9 9 10 10 11 11 11 11 12 13 14 14 14
5 5 4 3 4 3 3 4 4 4 5 7 6 5 6 6 6 7 5 5 5 7 8 8 8 8 9 10 10 11 11 11 11 12 13 14 14 15
6 6 5 5 5 4 4 4 4 4 5 6 6 5 5 4 6 6 6 5 5 5 7 7 8 8 9 9 10 10 10 11 11 12 13 13 14 15
6 6 6 6 6 6 5 5 4 5 5 5 5 5 4 4 5 5 6 5 5 4 5 6 7 8 8 8 9 10 10 10 11 12 12 13 14 14
6 7 7 7 7 6 5 5 5 5 4 5 5 5 4 4 4 4 6 6 6 3 5 5 5 5 5 6 7 8 10 11 11 12 13 13 14 14
7 7 6 7 9 10 10 8 7 6 6 5 5 6 6 5 5 5 5 6 5 3 6 6 4 5 4 4 7 10 10 11 11 12 13 14 14 15
7 7 5 5 8 7 8 10 9 10 9 7 7 7 6 5 6 6 6 6 6 6 6 6 4 5 4 5 9 10 10 11 11 13 14 14 15 15
7 7 7 7 6 7 7 7 7 7 7 7 7 7 6 5 5 6 7 7 7 4 4 5 5 5 6 5 6 8 10 11 12 14 15 15 15 15
7 7 8 8 8 9 8 8 7 6 6 7 7 7 7 7 5 4 4 5 5 4 2 4 5 6 6 5 4 7 10 12 14 14 15 15 15 15
6 7 9 10 9 10 9 8 8 6 5 5 6 6 6 5 6 5 4 4 4 4 1 3 4 5 5 4 4 5 7 10 13 14 14 14 15 10
6 5 5 9 11 11 10 8 8 6 5 5 5 4 4 4 4 4 4 4 5 4 3 3 4 4 5 6 5 6 6 7 8 9 11 13 14 12
6 5 5 8 10 11 9 9 9 8 5 4 4 4 4 3 3 3 4 5 5 6 5 5 4 5 6 7 7 6 6 7 8 8 7 11 12 13
6 7 7 8 9 8 9 10 8 6 5 5 5 4 4 3 3 3 4 4 6 6 5 6 6 6 6 7 8 8 8 7 7 7 7 8 8 8
6 6 8 9 8 7 7 6 6 5 5 5 5 4 3 3 3 3 3 3 4 4 4 5 6 7 7 9 9 9 8 7 7 8 9 9 8 8
5 4 5 5 5 5 5 5 4 5 5 4 4 4 3 3 3 3 3 3 4 4 4 3 4 6 8 9 8 9 8 8 8 8 9 10 9 8
7 6 6 6 6 6 5 5 5 5 5 5 5 4 4 4 4 3 3 4 5 5 4 4 4 5 5 6 9 9 8 8 8 9 9 10 11 9
7 6 6 6 6 6 5 5 5 5 4 5 5 5 4 4 4 4 4 4 4 5 4 4 4 4 6 7 4 6 7 8 9 9 8 9 11 11
6 6 6 6 6 6 6 5 5 5 5 5 5 5 4 4 4 4 4 4 4 4 5 4 4 4 6 7 7 7 9 9 9 9 9 9 10 13
6 6 6 5 5 5 5 5 5 5 5 5 5 5 5 5 5 5 4 6 5 5 5 5 4 6 5 5 7 8 7 8 10 9 10 9 10 9
6 6 5 5 6 5 5 5 5 5 5 5 5 5 5 5 5 5 5 4 4 5 6 5 4 4 4 6 8 9 10 9 10 13 14 12 8 8
6 6 6 6 6 5 5 6 6 5 5 5 5 5 5 5 4 4 4 4 4 5 5 5 4 4 5 6 8 8 11 11 9 9 8 9 14 18
Wind_Direction
258 246 247 253 260 271 276 279 284 288 283 266 262 282 313 313 327 315 315 326 325 328 330 332 332 331 334 334 331 329 326 323 323 322 322 322 321 319
256 256 250 249 249 257 265 269 267 275 279 290 293 311 318 310 315 309 312 314 312 322 326 327 330 330 330 329 328 325 322 321 320 320 319 320 320 319
246 249 251 253 252 249 251 256 259 264 272 285 289 301 304 306 309 310 310 310 310 318 323 323 326 325 326 327 326 325 324 322 321 321 319 319 318 318
247 247 249 246 248 250 247 250 257 260 270 282 290 296 299 306 310 312 313 311 307 315 319 319 320 323 324 326 326 325 325 323 321 319 318 318 317 316
248 247 247 245 247 245 246 251 256 260 262 273 285 294 296 303 310 308 309 310 309 311 313 313 316 319 321 324 327 326 325 324 321 318 317 316 316 315
245 245 246 245 249 251 249 251 254 257 259 266 275 284 289 301 305 310 313 316 311 312 312 310 311 314 315 319 324 325 325 323 322 322 320 318 315 312
244 244 245 246 251 253 254 254 253 255 258 264 272 280 285 299 305 312 307 312 307 309 314 308 309 307 308 311 319 326 324 322 322 324 324 323 321 316
249 247 244 240 240 242 246 252 257 260 262 263 269 273 285 294 301 301 306 311 307 329 316 303 298 299 305 310 324 325 323 322 323 324 326 324 322 320
247 247 243 240 239 242 240 241 244 247 254 264 269 274 284 292 295 293 292 295 294 314 311 295 304 302 310 310 314 317 319 321 322 323 322 321 318 317
245 245 247 246 237 237 242 245 248 249 248 251 261 273 282 285 278 283 292 294 289 285 297 290 307 308 311 303 310 313 317 319 320 320 320 319 317 315
247 245 244 247 241 234 240 245 249 252 245 247 261 270 276 277 278 278 281 289 293 297 310 292 305 310 301 291 297 308 311 314 316 318 318 318 317 314
250 245 241 245 245 236 238 242 247 250 247 245 247 249 254 257 259 263 273 278 287 292 316 304 305 321 306 291 303 308 306 309 312 315 316 316 316 312
253 251 243 237 242 240 241 246 247 251 251 248 250 251 252 253 253 254 258 262 268 268 290 305 296 300 288 298 300 298 301 308 311 310 311 312 312 309
254 254 247 237 241 244 243 242 243 243 244 242 247 250 251 253 254 257 257 259 262 266 276 278 273 282 289 292 291 298 302 305 305 304 305 309 307 303
254 254 251 245 246 247 243 242 239 235 233 236 243 249 251 256 258 259 257 258 261 259 259 258 262 269 271 277 285 294 302 302 299 300 304 306 306 306
253 248 245 244 239 241 242 237 234 233 233 239 246 249 243 237 242 249 260 267 269 265 249 251 257 262 267 272 276 284 288 290 298 302 303 300 297 294
255 243 238 236 233 230 228 228 227 226 231 235 238 239 238 238 243 244 253 259 261 275 282 273 265 265 265 269 275 275 282 287 292 302 304 300 295 292
252 240 237 234 237 235 230 226 224 225 226 226 229 232 235 237 241 240 243 252 263 272 280 291 299 294 278 254 237 265 280 288 297 300 297 297 297 297
246 241 237 234 234 234 233 230 229 226 222 223 226 227 229 233 237 241 243 252 262 270 277 284 287 289 296 300 275 232 274 293 298 297 296 293 292 296
241 242 240 236 233 232 231 228 227 222 218 220 224 223 223 226 232 238 240 248 262 272 277 274 271 272 279 293 294 287 273 280 290 295 298 296 289 287
241 242 239 235 233 232 229 225 222 220 218 217 220 220 219 223 232 236 241 249 256 264 271 277 280 284 281 278 278 282 286 276 276 282 294 298 299 297
244 243 239 234 232 229 226 222 220 218 214 216 218 217 217 221 230 234 239 246 251 260 272 280 285 280 271 273 284 293 299 303 293 281 270 265 282 295
245 243 240 235 230 225 221 218 217 218 215 214 215 216 215 220 227 231 236 243 253 262 272 281 285 279 277 279 286 292 299 305 308 308 297 283 277 277